Regional Weather Roundup
Issued by NWS

Home | Current Version | Previous Version | Graphics & Text | Print | Product List | Glossary On
Versions: 1 2 3 4 5 6 7 8 9 10 11 12 13 14 15 16 17 18 19 20 21 22 23 24 25 26 27 28 29 30 31 32 33 34 35 36 37 38 39 40 41 42 43 44 45 46 47 48 49 50
000
ASUS43 KFSD 170002
RWRSD

WEATHER ROUNDUP FOR SOUTH DAKOTA
NATIONAL WEATHER SERVICE SIOUX FALLS SD
700 PM CDT WED APR 16 2014

NOTE: "FAIR" INDICATES FEW OR NO CLOUDS BELOW 12,000 FEET WITH NO
SIGNIFICANT WEATHER AND/OR OBSTRUCTIONS TO VISIBILITY.


SDZ001>005-009-010-012>017-170100-
NORTHWEST AND NORTH CENTRAL SOUTH DAKOTA

CITY           SKY/WX    TMP DP  RH WIND       PRES   REMARKS
FAITH            N/A     37  23  56 NE12      30.10R
MOBRIDGE       PTSUNNY   38  22  52 NE16      30.12R
$$

SDZ012>016-024>037-041>051-057-063-072>074-170100-
SOUTHWEST AND SOUTH CENTRAL SOUTH DAKOTA

CITY           SKY/WX    TMP DP  RH WIND       PRES   REMARKS
RAPID CTY ARPT MOSUNNY   41  26  55 E16       30.06R
PIERRE         CLOUDY    36  25  64 NE16      30.12R
CUSTER         HVY SNOW  31  30  96 SE8       30.00R VSB 1/4 WCI  23
ELLSWORTH AFB  PTSUNNY   40  26  58 NE16      30.06R
PHILIP         CLOUDY    37  25  61 NE9       30.11R
PINE RIDGE     MOSUNNY   42  29  59 NE12      30.04R
WINNER         CLOUDY    34  25  69 N21       30.09R WCI  22
$$

SDZ004>011-016>023-039-040-170100-
NORTHEAST SOUTH DAKOTA

CITY           SKY/WX    TMP DP  RH WIND       PRES   REMARKS
ABERDEEN       CLOUDY    33  23  66 N20       30.13R WCI  21
WATERTOWN      CLOUDY    28  24  85 N26       30.03R WCI  13
SISSETON         N/A     32  24  72 NE16      30.10R WCI  21
$$

SDZ017-020-022-023-036>040-048>070-170100-
SOUTHEAST SOUTH DAKOTA

CITY           SKY/WX    TMP DP  RH WIND       PRES   REMARKS
SIOUX FALLS    CLOUDY    30  27  88 N26G35    29.94R WCI  16
HURON          CLOUDY    33  26  75 N18       30.08R WCI  22
CHAMBERLAIN      N/A     33  26  75 NE16G24   30.11R WCI  23
MITCHELL       CLOUDY    33  26  75 N21G31    30.07R WCI  21
YANKTON        CLOUDY    36  28  75 NW28G39   29.98R
$$

ABBREVIATIONS USED IN REMARKS
   TC - TEMPERATURE IN CELSIUS
  WCI - WIND CHILL INDEX
   HX - HEAT INDEX
  VSB - VISIBILITY




USA.gov is the U.S. government's official web portal to all federal, state and local government web resources and services.